Theta_e
315 316 317 317 319 323 325 327 327 327 327 323 326 327 327 328 328 329 328 328 328 328 326 324 323 321 319 319 317 316 314 313 312 309 313 310 312 308 308 309 309 309 310
301 307 310 313 315 320 325 326 327 327 328 327 324 325 327 328 329 329 329 329 329 328 327 326 325 323 321 320 318 316 315 313 313 313 309 305 307 307 310 309 309 307 308
300 300 304 310 313 316 322 325 327 327 328 327 323 324 326 326 326 325 326 328 328 328 326 326 325 324 323 321 320 318 316 314 315 314 311 306 304 306 307 307 305 305 304
295 297 301 304 309 314 317 324 326 327 327 326 325 320 320 321 324 325 326 327 327 327 327 326 325 324 322 321 320 319 318 315 312 311 309 311 310 304 299 303 305 303 304
293 296 296 299 298 301 304 314 321 324 326 326 326 323 321 322 324 324 324 325 324 324 324 324 322 320 318 317 317 315 313 313 311 310 309 305 305 301 302 296 297 301 300
292 294 296 300 301 300 299 299 312 323 325 325 325 325 324 321 321 321 321 320 314 311 310 310 309 308 307 305 303 303 302 302 306 303 304 302 301 299 298 296 295 294 294
294 296 300 302 301 300 299 298 301 315 325 325 324 326 325 322 321 321 318 312 307 305 304 304 303 300 299 299 299 298 297 296 295 295 296 296 296 297 297 294 292 290 290
295 297 300 302 302 302 300 299 303 308 322 325 325 321 322 320 317 315 311 305 303 301 300 298 296 295 295 295 295 294 294 292 291 291 290 292 292 293 293 292 291 286 285
295 298 300 301 301 301 301 302 304 308 319 321 319 314 312 310 305 302 302 300 298 296 294 293 292 292 292 292 292 291 289 289 289 288 288 288 290 290 290 290 290 290 283
295 297 298 299 300 300 300 300 301 305 306 307 308 307 303 302 299 299 296 295 293 292 291 290 290 289 289 290 290 288 288 286 286 287 286 286 287 288 288 288 289 289 288
294 295 295 296 297 297 297 297 296 298 299 300 297 296 297 295 295 294 292 290 290 289 289 288 288 287 287 287 287 287 285 285 284 285 285 284 285 285 285 286 286 286 286
294 294 294 294 294 294 294 294 294 293 293 295 295 294 293 292 291 289 289 289 288 288 287 287 286 286 285 285 285 284 284 283 283 284 283 283 285 283 284 283 284 285 286
292 292 292 292 292 292 292 291 291 290 292 293 292 290 290 289 288 288 287 287 286 286 285 285 284 284 284 284 284 284 284 283 283 283 283 283 282 281 281 283 284 284 285
293 292 291 290 291 291 290 289 289 290 289 290 289 288 287 287 287 286 286 286 285 284 283 283 283 283 282 283 283 284 283 283 283 284 283 282 281 282 283 283 283 284 283
292 292 291 291 290 289 289 289 289 288 289 288 287 286 285 285 285 284 284 283 283 282 282 281 281 281 282 284 283 283 282 282 282 282 282 282 282 284 285 284 284 284 283
293 292 292 292 290 290 290 289 289 288 287 286 285 285 284 283 283 283 282 282 281 281 281 280 280 280 281 286 287 285 282 282 281 281 281 282 281 283 286 286 287 287 284
293 293 293 292 292 292 291 289 288 287 285 284 284 283 283 282 282 282 281 281 280 280 280 280 280 279 279 285 286 287 283 282 281 281 282 282 282 282 283 285 286 285 286
294 294 295 294 293 292 290 289 287 285 284 284 283 282 282 282 281 280 280 279 279 279 279 279 279 278 279 284 286 286 282 281 281 281 281 281 281 281 284 284 283 283 284
297 297 297 296 293 291 291 287 285 284 284 283 283 282 282 280 278 278 277 279 278 277 276 278 274 273 275 283 284 284 280 281 280 281 281 280 280 284 286 283 283 281 284
297 297 296 294 292 291 288 286 285 284 283 283 282 280 280 278 277 278 277 277 276 277 277 276 273 273 271 280 283 283 279 273 278 278 280 281 282 284 285 283 283 282 281
296 295 295 293 292 290 288 286 284 283 283 281 279 278 277 276 276 276 275 274 273 273 271 273 273 273 273 274 281 282 279 277 274 275 277 279 282 284 285 285 284 283 285
293 294 293 291 290 287 287 285 283 282 280 279 277 275 275 277 275 273 272 271 271 272 273 273 273 274 273 276 279 280 281 281 270 273 277 277 282 284 284 284 285 286 284
290 290 291 287 286 286 288 285 283 279 277 276 274 272 274 274 273 272 272 271 272 273 273 273 271 272 274 273 277 278 280 280 277 278 280 282 283 283 282 283 285 284 283
284 283 284 284 283 285 286 286 279 279 277 274 273 273 272 271 273 274 273 273 272 272 272 272 271 270 270 270 272 274 273 276 277 278 277 280 281 282 282 278 280 279 277
280 282 283 283 281 280 280 279 277 277 275 274 273 273 273 273 272 272 272 273 273 273 271 270 269 266 265 269 278 278 275 276 278 279 270 271 278 278 277 275 274 276 275
278 278 277 278 276 276 275 275 276 277 275 273 273 273 272 272 271 271 269 273 274 275 276 276 273 270 275 277 278 279 279 280 280 269 265 270 273 273 274 276 277 271 275
Wind_Speed
12 9 11 10 10 11 13 14 13 10 7 3 4 3 4 3 2 3 5 4 3 3 3 2 3 3 3 2 1 1 2 2 2 3 5 4 6 4 3 4 4 5 5
7 9 9 8 10 12 14 13 14 12 10 8 4 4 4 2 2 3 4 4 5 5 4 4 3 3 2 2 2 2 2 2 1 2 1 5 5 3 5 4 4 6 4
14 10 10 11 10 12 14 14 14 13 12 9 4 3 3 2 3 2 2 4 5 5 5 5 3 3 2 2 2 1 2 2 1 1 2 3 3 9 4 7 2 6 4
8 7 9 8 8 9 7 10 12 13 12 11 9 6 5 4 3 4 4 4 5 5 4 4 3 2 1 2 2 2 2 0 2 2 1 2 3 4 7 3 9 5 9
10 11 10 8 6 7 8 8 9 10 11 13 12 9 6 4 4 3 4 4 3 4 5 5 6 5 4 4 5 4 5 3 2 3 3 1 3 1 4 11 6 8 4
9 7 5 6 4 4 5 6 8 12 12 13 11 13 11 7 4 5 4 4 4 4 6 7 6 5 4 4 4 5 7 5 5 3 4 3 3 4 4 7 13 14 6
8 9 10 8 6 7 6 6 7 9 13 13 12 12 11 9 10 8 6 7 4 3 4 5 5 4 6 5 5 6 6 5 4 5 3 3 3 3 3 4 8 9 8
8 9 8 8 7 7 7 7 8 7 13 13 12 7 10 6 5 6 7 6 5 4 5 6 6 7 6 6 6 4 5 6 5 7 5 2 3 3 2 3 7 12 5
11 10 7 6 6 6 7 7 7 5 11 10 9 9 9 10 9 9 8 6 6 5 6 6 7 6 6 7 6 4 5 5 4 5 4 2 3 4 3 2 2 5 10
8 7 7 7 5 4 4 5 5 7 6 8 9 9 12 10 10 9 9 8 7 6 7 6 7 6 6 6 6 4 4 5 4 3 5 4 2 4 3 3 3 3 6
9 7 6 6 6 5 5 5 6 8 9 9 9 9 13 10 11 10 8 7 7 7 7 6 7 6 6 5 5 5 5 5 4 3 4 5 4 4 4 4 3 4 4
9 7 6 6 6 6 6 6 6 6 6 9 10 9 10 12 12 9 7 7 7 6 7 6 6 6 5 5 6 5 4 4 5 6 6 6 5 5 4 4 6 7 8
8 7 6 7 7 6 6 6 6 6 7 9 10 10 11 12 11 10 8 7 7 6 6 6 6 5 5 5 4 3 3 5 5 5 5 6 5 5 4 7 8 8 8
11 10 8 6 6 6 7 7 6 6 7 8 9 10 9 10 10 8 7 7 7 7 6 6 5 4 4 4 4 5 5 5 4 4 4 5 4 7 7 7 8 7 10
11 10 9 9 8 8 7 7 8 8 8 10 10 9 8 9 9 8 7 7 6 6 6 6 5 4 4 3 4 3 2 3 5 4 4 3 5 9 8 6 9 10 8
14 11 11 12 12 11 11 9 10 9 8 9 9 9 9 9 8 7 7 6 6 6 6 5 5 4 3 5 4 3 3 3 4 5 5 5 6 7 11 15 18 15 9
12 15 16 16 14 13 12 12 11 8 7 9 9 9 8 8 7 7 7 6 6 5 6 6 4 4 3 5 6 5 3 4 4 5 5 5 4 6 7 11 13 11 16
15 16 16 15 15 13 12 10 9 10 10 9 9 7 8 8 7 7 7 6 4 4 4 4 4 4 3 6 7 7 3 4 5 5 5 6 7 7 8 8 9 8 9
17 18 15 13 13 15 14 12 11 10 10 10 10 9 8 8 7 6 6 4 4 3 2 2 3 3 3 7 7 6 3 4 5 5 6 6 7 10 16 11 11 7 6
12 12 14 13 15 15 14 15 14 13 13 12 10 7 7 8 7 6 5 2 2 3 3 3 3 1 2 7 8 6 1 3 4 4 4 9 12 19 20 12 11 9 9
9 9 14 16 16 16 17 16 15 16 11 9 9 7 6 7 6 6 3 4 4 4 3 4 3 3 3 5 7 7 1 3 3 4 5 4 17 19 20 21 10 6 10
10 14 15 15 15 16 18 17 18 12 12 11 10 8 7 5 5 7 4 3 4 4 4 4 3 2 3 5 5 8 9 10 0 4 6 6 18 22 21 16 17 18 12
6 7 12 11 11 15 17 17 14 15 14 13 10 7 7 6 5 5 5 3 3 3 3 2 1 2 2 3 7 8 9 11 6 5 12 21 22 21 16 17 18 12 7
5 5 9 11 11 12 12 12 15 15 15 14 11 9 9 6 4 3 3 3 3 3 2 1 1 2 3 3 4 3 3 6 5 9 6 12 18 18 15 6 7 4 4
2 3 7 9 9 7 9 13 14 16 14 12 11 9 7 6 6 4 3 3 2 3 2 2 2 1 3 3 9 9 5 5 8 10 3 4 7 8 6 5 5 5 3
2 4 4 6 6 8 10 12 13 15 16 13 9 8 7 5 5 5 4 2 2 3 2 0 1 2 4 9 11 12 13 14 16 3 3 5 5 5 8 8 8 3 5
Wind_Direction
214 210 206 195 188 191 187 188 186 187 167 153 175 156 185 177 192 190 195 171 176 192 193 226 247 217 238 247 276 307 315 300 322 326 304 293 289 332 316 279 293 311 326
217 217 214 199 190 189 196 190 192 185 186 182 174 161 152 172 167 183 192 198 201 214 222 225 233 234 240 253 236 211 313 268 275 311 316 328 334 352 311 318 323 322 313
217 214 207 207 195 191 193 192 189 186 187 179 137 91 84 80 151 165 189 210 213 214 215 232 227 249 229 267 270 240 223 303 1 17 325 334 283 333 329 313 317 315 324
210 213 195 202 196 197 176 191 186 184 185 172 176 170 163 164 182 173 192 201 204 228 225 233 205 188 84 354 348 9 25 27 345 15 84 238 307 325 321 323 315 331 324
197 199 202 202 186 166 173 177 170 178 180 183 183 181 172 181 166 149 178 174 89 57 56 69 71 72 60 52 51 59 62 50 31 14 355 342 270 286 310 305 307 302 284
197 183 149 144 164 158 167 178 180 184 181 182 185 189 187 163 150 150 143 99 80 66 59 65 69 67 74 62 55 59 62 51 53 23 16 12 349 327 328 309 313 305 306
183 169 165 173 185 188 194 197 192 192 190 188 186 188 178 170 173 155 138 132 116 79 68 79 83 69 64 68 74 71 65 51 61 42 23 16 3 339 302 289 310 302 308
187 185 180 179 187 191 202 207 201 187 196 188 184 167 149 136 117 122 120 109 113 113 111 90 79 77 74 69 66 62 58 54 51 48 26 358 345 358 342 311 327 317 272
182 181 172 183 182 189 203 201 185 170 189 174 149 133 125 121 118 103 103 112 121 113 99 97 96 83 77 72 75 72 59 59 49 40 27 357 338 349 340 314 320 327 320
168 176 171 176 185 172 150 129 142 145 137 128 132 137 118 116 120 124 118 118 108 102 107 101 90 79 75 77 81 72 46 54 28 28 17 0 319 326 324 318 309 277 287
168 171 178 172 164 144 145 132 124 135 126 127 119 121 124 132 113 112 115 117 118 122 114 109 102 96 86 75 78 65 48 49 25 18 4 345 339 340 340 333 327 314 295
162 169 166 158 153 157 149 147 132 121 121 124 122 127 124 112 110 116 114 112 107 99 109 106 97 95 87 78 74 56 35 32 15 5 4 352 349 344 340 332 334 323 313
154 157 165 170 166 155 146 146 134 124 123 124 127 122 119 120 124 128 124 121 119 114 102 103 100 92 87 90 76 88 38 26 13 359 347 328 331 331 342 340 330 320 312
178 179 172 166 162 163 157 142 127 136 130 128 130 126 128 128 125 123 123 126 123 117 108 103 104 100 106 96 63 43 22 7 357 331 312 320 329 334 332 325 318 308 313
191 184 165 173 179 174 157 145 142 142 142 133 133 133 121 117 120 122 126 123 121 117 114 115 100 84 81 55 52 34 2 339 324 324 310 276 274 287 303 316 318 316 311
196 178 173 180 186 180 175 157 153 154 147 140 138 136 133 131 132 129 131 120 121 124 119 106 109 85 62 40 6 11 352 335 303 299 298 294 285 287 303 325 313 308 318
183 182 189 191 187 181 170 171 163 147 143 141 141 140 136 136 141 136 131 135 140 135 125 104 89 75 45 14 9 352 324 311 311 299 287 285 267 282 309 317 319 305 300
189 193 191 191 185 171 165 153 152 158 152 149 151 143 143 142 137 135 143 137 138 122 108 87 65 53 22 14 5 353 334 304 291 288 282 280 282 272 318 313 316 312 284
202 201 193 183 172 169 163 153 151 153 157 161 161 162 155 143 139 141 142 135 109 90 102 91 51 38 355 9 4 357 331 310 293 280 277 284 292 287 324 316 304 301 306
196 183 175 172 170 172 155 156 166 167 176 170 164 151 146 144 142 135 135 109 116 113 82 67 67 33 351 7 7 360 276 300 275 264 290 313 332 328 322 313 311 305 309
179 152 169 180 178 163 161 170 168 182 167 136 131 128 124 129 129 126 97 111 109 107 86 74 35 28 23 346 355 349 245 264 296 318 323 311 320 316 311 308 306 289 301
160 168 172 178 170 166 167 172 180 157 136 133 130 133 130 127 127 125 120 115 123 114 96 85 46 352 322 322 332 351 347 338 319 300 304 293 309 316 313 309 301 304 305
173 175 171 155 163 172 178 174 164 144 137 136 135 131 122 123 132 132 135 121 117 106 101 102 119 280 277 278 323 326 339 338 329 305 309 317 314 307 305 296 301 296 292
175 146 140 163 169 176 176 168 150 143 141 138 137 134 129 130 121 115 123 127 142 126 144 152 217 243 255 260 262 250 282 301 314 294 298 308 310 306 298 291 295 280 249
77 132 159 164 164 145 139 144 144 142 137 134 139 141 140 143 136 120 130 147 138 168 167 205 221 233 312 290 338 344 333 322 311 329 340 303 309 319 310 296 278 273 257
112 106 95 118 129 131 135 140 148 146 141 141 147 149 144 145 146 149 122 24 141 224 189 258 220 241 304 332 338 334 321 328 333 6 314 288 287 324 324 313 299 260 242